{"data":{"norad_id":63911,"intl_designator":"2025-095X","name":"STARLINK-34038","alt_names":[],"object_type":"PAYLOAD","status":"ACTIVE","operator":null,"country":"US","launch_date":"2025-05-10","launch_site_code":"AFETR","launch_vehicle":null,"mission":null,"orbit_class":"UNKNOWN","rcs_meters":null,"size_class":null,"mass_kg":null,"dimensions":null,"purposes":["comms"],"wikipedia_slug":null,"has_3d_model":false,"image_url":null,"decayed_at":null,"tle_current":{"epoch":"2026-05-25T04:00:03.445056Z","epoch_age_seconds":50863,"freshness":"FRESH","line1":"1 63911U 25095X   26145.16670654  .00015619  00000+0  57563-3 0  9994","line2":"2 63911  43.0005 104.3407 0001388 273.6195  86.4498 15.27596408 59477","mean_motion":15.27596408,"eccentricity":0.0001388,"inclination_deg":43.0005,"raan_deg":104.3407,"arg_perigee_deg":273.6195,"mean_anomaly_deg":86.4498,"bstar":0.00057563,"rev_number":5947,"period_min":94.265736189136,"perigee_km":482.04763921393,"apogee_km":483.95229083542,"semimajor_km":6861.1369650247,"source":"CELESTRAK","updated_at":"2026-05-25T13:38:20.179418Z"}}}